Weather History for Hyannis, MA

Change the Weather History Date:

Wednesday, January 23, 2013

  Actual Average Record
Temperature  
Mean Temperature 12 °F -  
Max Temperature 16 °F 37 °F 60 °F (1933)
Min Temperature 8 °F 18 °F -6 °F (1976)
Degree Days  
Heating Degree Days 52    
Moisture  
Dew Point -5 °F    
Average Humidity 46    
Maximum Humidity 64    
Minimum Humidity 36    
Precipitation  
Precipitation 0.00 in - - ()
Sea Level Pressure  
Sea Level Pressure 30.09 in    
Wind  
Wind Speed 10 mph (WNW)    
Max Wind Speed 16 mph    
Max Gust Speed 26 mph    
Visibility 10 miles    
Events      
Averages and records for this station are not official NWS values.
T = Trace of Precipitation, MM = Missing Value Source: NWS Daily Summary

Daily Weather History Graph

Daily Weather History Graph

Search for Another Location

Airport:

Trip Planner

Search our weather history database for the weather conditions in past years. The results will help you decide how hot, cold, wet, or windy it might be!

Date:

Astronomy

Jan. 23, 2013 Rise Set
Actual Time 7:00 AM EST 4:45 PM EST
Civil Twilight 6:30 AM EST 5:15 PM EST
Nautical Twilight 5:57 AM EST 5:49 PM EST
Astronomical Twilight 5:24 AM EST 6:22 PM EST
Moon 1:52 PM EST (1/23) 4:10 AM EST (1/23)
Length of Visible Light 10h 44m
Length of Day
9h 44m
Waxing Gibbous, 89% of the Moon is Illuminated
Jan 23
Waxing Gibbous
Jan 26
Full
Feb 3
Last Quarter
Feb 10
New
Feb 17
First Quarter

Hourly Weather History & Observations

Time (EST) Temp. Windchill Dew Point Humidity Pressure Visibility Wind Dir Wind Speed Gust Speed Precip Events Conditions
12:56 AM 12.9 °F 0.7 °F -0.9 °F 54% 30.05 in 10.0 mi West 9.2 mph - N/A   Clear
1:56 AM 12.9 °F -0.2 °F -0.9 °F 54% 30.06 in 10.0 mi West 10.4 mph - N/A   Clear
2:56 AM 12.0 °F 0.5 °F -0.0 °F 59% 30.07 in 10.0 mi West 8.1 mph - N/A   Clear
3:56 AM 10.9 °F -0.8 °F 1.0 °F 64% 30.08 in 10.0 mi WNW 8.1 mph 16.1 mph N/A   Clear
4:56 AM 10.9 °F -2.6 °F -0.9 °F 59% 30.09 in 10.0 mi West 10.4 mph - N/A   Clear
5:56 AM 10.0 °F -2.9 °F -4.0 °F 53% 30.10 in 10.0 mi WNW 9.2 mph 18.4 mph N/A   Clear
6:56 AM 10.0 °F -2.9 °F -5.1 °F 51% 30.10 in 10.0 mi WNW 9.2 mph - N/A   Clear
7:56 AM 10.9 °F -4.7 °F -8.0 °F 42% 30.12 in 10.0 mi WNW 13.8 mph 20.7 mph N/A   Clear
8:56 AM 12.0 °F -4.5 °F -9.0 °F 39% 30.13 in 10.0 mi WNW 16.1 mph 24.2 mph N/A   Clear
10:56 AM 14.0 °F -0.2 °F -7.1 °F 39% 30.11 in 10.0 mi NW 12.7 mph 21.9 mph N/A   Clear
11:56 AM 14.0 °F -0.8 °F -7.1 °F 39% 30.09 in 10.0 mi West 13.8 mph 26.5 mph N/A   Clear
12:56 PM 16.0 °F 1.1 °F -7.1 °F 36% 30.06 in 10.0 mi WNW 15.0 mph 25.3 mph N/A   Clear
1:56 PM 16.0 °F 2.3 °F -6.0 °F 38% 30.05 in 10.0 mi WNW 12.7 mph 24.2 mph N/A   Clear
2:56 PM 16.0 °F 1.7 °F -5.1 °F 39% 30.06 in 10.0 mi West 13.8 mph 19.6 mph N/A   Clear
3:56 PM 16.0 °F 1.7 °F -6.0 °F 38% 30.06 in 10.0 mi WNW 13.8 mph 19.6 mph N/A   Clear
4:56 PM 14.0 °F 2.0 °F -6.0 °F 41% 30.07 in 10.0 mi WNW 9.2 mph - N/A   Clear
5:56 PM 12.9 °F 2.6 °F -6.0 °F 43% 30.08 in 10.0 mi West 6.9 mph - N/A   Clear
6:56 PM 12.0 °F -0.4 °F -7.1 °F 42% 30.09 in 10.0 mi WNW 9.2 mph 17.3 mph N/A   Clear
7:56 PM 10.9 °F -0.8 °F -7.1 °F 44% 30.11 in 10.0 mi WNW 8.1 mph - N/A   Clear
8:56 PM 10.9 °F -3.4 °F -8.0 °F 42% 30.11 in 10.0 mi WNW 11.5 mph - N/A   Clear
9:56 PM 10.0 °F -5.2 °F -8.0 °F 44% 30.10 in 10.0 mi West 12.7 mph - N/A   Clear
10:56 PM 9.0 °F -2.2 °F -8.0 °F 46% 30.10 in 10.0 mi Variable 6.9 mph 17.3 mph N/A   Clear
11:56 PM 8.1 °F -4.3 °F -9.0 °F 46% 30.10 in 10.0 mi West 8.1 mph - N/A   Clear